Weather History for Mather AFB, CA

Change the Weather History Date:

Wednesday, January 1, 2014

  Actual Average Record
Temperature  
Mean Temperature 47 °F -  
Max Temperature 62 °F 51 °F 64 °F (2007)
Min Temperature 32 °F 38 °F 28 °F (2013)
Degree Days  
Heating Degree Days 18    
Moisture  
Dew Point 31 °F    
Average Humidity 62    
Maximum Humidity 87    
Minimum Humidity 32    
Precipitation  
Precipitation 0.00 in - - ()
Sea Level Pressure  
Sea Level Pressure 30.18 in    
Wind  
Wind Speed 1 mph (South)    
Max Wind Speed 6 mph    
Max Gust Speed -    
Visibility 10 miles    
Events      
Averages and records for this station are not official NWS values.
T = Trace of Precipitation, MM = Missing Value Source: NWS Daily Summary

Daily Weather History Graph

Daily Weather History Graph

Search for Another Location

Airport:

Trip Planner

Search our weather history database for the weather conditions in past years. The results will help you decide how hot, cold, wet, or windy it might be!

Date:

Astronomy

Jan. 01, 2014 Rise Set
Actual Time 7:22 AM PST 4:55 PM PST
Civil Twilight 6:53 AM PST 5:24 PM PST
Nautical Twilight 6:20 AM PST 5:57 PM PST
Astronomical Twilight 5:47 AM PST 6:30 PM PST
Moon 7:18 AM PST (1/1) 5:45 PM PST (1/1)
Length of Visible Light 10h 31m
Length of Day
9h 32m
New Moon, 0% of the Moon is Illuminated
Jan 1
New Moon
Jan 7
First Quarter
Jan 15
Full
Jan 23
Last Quarter
Jan 30
New

Hourly Weather History & Observations

Time (PST) Temp. Windchill Dew Point Humidity Pressure Visibility Wind Dir Wind Speed Gust Speed Precip Events Conditions
2:55 AM 33.8 °F - 28.4 °F 81% 30.20 in 10.0 mi Calm Calm - N/A   Clear
3:45 AM 32.0 °F - 28.4 °F 87% 30.19 in 10.0 mi Calm Calm - N/A   Clear
4:45 AM 32.0 °F - 28.4 °F 87% 30.18 in 10.0 mi Calm Calm - N/A   Clear
5:45 AM 32.0 °F - 28.4 °F 87% 30.18 in 10.0 mi Calm Calm - N/A   Partly Cloudy
6:46 AM 32.0 °F 28.7 °F 28.4 °F 87% 30.18 in 10.0 mi ENE 3.5 mph - N/A   Partly Cloudy
7:50 AM 33.8 °F - 28.4 °F 81% 30.20 in 10.0 mi Calm Calm - N/A   Partly Cloudy
8:46 AM 37.4 °F - 32.0 °F 81% 30.23 in 10.0 mi Calm Calm - N/A   Partly Cloudy
9:46 AM 48.2 °F - 33.8 °F 58% 30.24 in 10.0 mi South 4.6 mph - N/A   Partly Cloudy
10:46 AM 53.6 °F - 33.8 °F 47% 30.22 in 10.0 mi South 5.8 mph - N/A   Partly Cloudy
11:46 AM 57.2 °F - 33.8 °F 41% 30.20 in 10.0 mi South 4.6 mph - N/A   Partly Cloudy
12:45 PM 59.0 °F - 32.0 °F 36% 30.17 in 10.0 mi Calm Calm - N/A   Partly Cloudy
1:45 PM 62.6 °F - 32.0 °F 32% 30.15 in 10.0 mi SSW 4.6 mph - N/A   Partly Cloudy
2:48 PM 62.6 °F - 32.0 °F 32% 30.14 in 10.0 mi WSW 4.6 mph - N/A   Partly Cloudy
3:45 PM 60.8 °F - 32.0 °F 34% 30.14 in 10.0 mi Calm Calm - N/A   Mostly Cloudy
4:45 PM 57.2 °F - 32.0 °F 38% 30.14 in 10.0 mi Calm Calm - N/A   Mostly Cloudy
5:45 PM 50.0 °F - 32.0 °F 50% 30.14 in 10.0 mi Calm Calm - N/A   Scattered Clouds
6:45 PM 44.6 °F - 32.0 °F 61% 30.15 in 10.0 mi Calm Calm - N/A   Scattered Clouds
7:45 PM 42.8 °F - 32.0 °F 66% 30.16 in 10.0 mi Calm Calm - N/A   Clear
8:45 PM 39.2 °F - 32.0 °F 75% 30.17 in 10.0 mi Calm Calm - N/A   Clear
9:45 PM 41.0 °F - 32.0 °F 70% 30.17 in 10.0 mi Calm Calm - N/A   Clear
10:45 PM 39.2 °F - 32.0 °F 75% 30.18 in 10.0 mi Calm Calm - N/A   Clear